Preview of NWS' New Version of Forecast
This preview is not operational and should not be used for support decisions.

Regional Weather Roundup (RWR)

Issued by Gray - Portland, ME (GYX)

                            
533 
ASUS41 KGYX 202210
RWRGYX
WEATHER ROUNDUP FOR MAINE AND NEW HAMPSHIRE
NATIONAL WEATHER SERVICE GRAY ME
600 PM EDT FRI APR 20 2018

MEZ002-005-006-010-012-015-018-020-021-024-026-027-029-202300-
MAINE
  
CITY           SKY/WX    TMP DP  RH WIND       PRES   REMARKS
PORTLAND       FAIR      48  29  47 NW21G30   30.07R                  
SANFORD        PTSUNNY   46  28  49 W16G25    30.10R                  
BAR HARBOR     CLOUDY    47  34  60 N12       29.99R                  
WISCASSET      CLOUDY    48  30  49 NW8G17    30.04R                  
ROCKLAND       CLOUDY    48  30  49 NW10      30.01R                  
FRYEBURG       CLOUDY    42  30  62 W12G17    30.10R                  
LEWISTONAUBURN PTSUNNY   46  29  51 NW20G25   30.06R                  
AUGUSTA        CLOUDY    46  30  53 NW15G22   30.03R                  
WATERVILLE     CLOUDY    45  31  58 NW15G25   30.00R                  
BANGOR         CLOUDY    45  35  68 N9        29.99R                  
GREENVILLE       N/A     40  26  57 NW13      29.96R                  
MILLINOCKET    CLOUDY    43  33  68 VRB5      29.99R                  
HOULTON        CLOUDY    42  31  64 N13       29.94R                  
PRESQUE ISLE   CLOUDY    44  27  51 N13       29.96R                  
FRENCHVILLE    FAIR      41  25  53 N18G26    29.95R                  
CARIBOU        FAIR      42  25  50 N10G21    29.94R                  
$$

NHZ002-005-008-009-011-012-014-202300-
NEW HAMPSHIRE
  
CITY           SKY/WX    TMP DP  RH WIND       PRES   REMARKS
PORTSMOUTH     MOSUNNY   48  26  42 NW23G30   30.09R                  
ROCHESTER      FAIR      45  29  53 NW21G30   30.10R                  
NASHUA         PTSUNNY   47  27  45 NW21      30.15R                  
MANCHESTER     PTSUNNY   48  25  40 NW16G29   30.14R                  
CONCORD        CLOUDY    44  27  51 NW21G26   30.16R                  
LACONIA        CLOUDY    40  27  59 W9        30.16R                  
PLYMOUTH       CLOUDY    38  28  67 W14G22    30.16R                  
BERLIN         FLURRIES  38  31  76 VRB7      30.09R                  
WHITEFIELD     LGT SNOW  37  30  75 W6        30.13R                  
JAFFREY        CLOUDY    42  27  55 NW9       30.15R                  
KEENE          CLOUDY    45  25  45 N13G20    30.18R                  
LEBANON        CLOUDY    41  25  53 NW9       30.20R                  
MT WASHINGTON  SNOWSHWR  16  16 100 NW48G60     N/A  VSB 0   WCI  -8  
$$

VTZ005-007-008-202300-
VERMONT
  
CITY           SKY/WX    TMP DP  RH WIND       PRES   REMARKS
ST JOHNSBURY     N/A     40  29  64 MISG      30.14R                  
MONTPELIER     CLOUDY    36  27  69 NW17G28   30.21R                  
BURLINGTON     CLOUDY    42  27  55 W12G20    30.22R                  
$$

MAZ007-012-024-CTZ003-RIZ002-NYZ038-NYZ072-202300-
SOUTHERN NEW ENGLAND AND NY
  
CITY           SKY/WX    TMP DP  RH WIND       PRES   REMARKS
BOSTON         PTSUNNY   50  26  39 NW17G29   30.13R                  
WORCESTER      CLOUDY    44  25  47 N15G26    30.13R                  
NANTUCKET      CLOUDY    48  31  51 NW8       30.11R                  
PROVIDENCE     PTSUNNY   52  26  36 NW18      30.12R                  
HARTFORD       FAIR      48  25  40 NW16G25   30.19R                  
ALBANY         PTSUNNY   42  23  46 W20G30    30.27R                  
NEW YORK CITY  FAIR      48  25  40 NW16G28   30.24R                  
$$

ANZ081-ANZ082-ANZ150-NHZ014-MEZ023>029-202300-
COASTAL MARINE OBSERVATIONS
  
STATION/POSITION TIME  TEMP    WIND        PRES    WAVE
                       AIR SEA DIR/SP/G            HT/PER
                 (UTC) (F)     (DEG/KT/KT) (MB)    (FT/S)
MOUNT DESERT ROC 2200   42     290/  3/  4 1015.6R
MATINICUS ROCK   2200   44     290/  7/  9 1015.7R
ISLE OF SHOALS   2200   45     300/ 22/ 24 1018.5R
JEFFREYS LEDGE   2136      41                N/A     3/ 9
CASHES LEDGE BUO 2150   43 41              1016.4R   4/ 9
$$

.............KEY..............
   WCI - WIND CHILL
   TC  - TEMPERATURE IN CELSIUS
   VSB - VISIBILITY IN MILES
   HX  - HEAT INDEX
   FAIR- INDICATES FEW OR NO CLOUDS BELOW 12,000 FT, WITH NO 
         SIGNIFICANT WEATHER AND/OR OBSTRUCTIONS TO VISIBILITY.